Regional Weather Roundup
Issued by NWS Charleston, SC

Current Version | Previous Version | Text Only | Print | Product List | Glossary Off
Versions: 1 2 3 4 5 6 7 8 9 10 11 12 13 14 15 16 17 18 19 20 21 22 23 24 25 26 27 28 29 30 31 32 33 34 35 36 37 38 39 40 41 42 43 44 45 46 47 48 49 50
000 ASUS42 KCHS 192212 RWRCHS REGIONAL WEATHER ROUNDUP NATIONAL WEATHER SERVICE CHARLESTON SC 600 PM EDT THU OCT 19 2017 NOTE: "FAIR" INDICATES FEW OR NO CLOUDS BELOW 12,000 FEET WITH NO SIGNIFICANT WEATHER AND/OR OBSTRUCTIONS TO VISIBILITY. NOT ALL STATIONS ARE QUALITY CONTROLLED. USE DATA WITH CAUTION... ESPECIALLY DEWPOINT OBSERVATIONS. SCZ027-030-031-034>040-042>050-192300- ...SOUTHEAST SOUTH CAROLINA... CITY SKY/WX TMP DP RH WIND PRES REMARKS N CHARLESTON PTCLDY 75 58 55 N6 30.18R WATERFRONT PRK N/A 79 63 57 E7 30.02S JOHNS ISLAND FAIR 75 63 64 NE6 30.18R PINOPOLIS N/A 75 61 60 VRB3 30.12S MONCKS CORNER FAIR 72 59 64 CALM 30.19R SUMMERVILLE FAIR 73 55 53 N3 30.20S BEAUFORT MCAS CLEAR 78 58 49 N7 30.18S BEAUFORT ARPT FAIR 73 61 64 E5 30.17S HAZE HILTON HEAD IS CLEAR 75 63 64 NE9 N/A WALTERBORO CLEAR 73 54 49 N5 30.20S ALLENDALE N/A 77 54 44 NE3 N/A ...SOUTHERN MIDLANDS AND PEE DEE... CITY SKY/WX TMP DP RH WIND PRES REMARKS GEORGETOWN FAIR 73 59 60 E3 30.19S KINGSTREE FAIR 73 52 46 CALM 30.19S ORANGEBURG CLEAR 76 51 41 N5 30.20S BARNWELL N/A 77 52 41 NE3 30.20S AIKEN FAIR 72 48 43 NW5 30.25S MANNING HAZE 73 59 60 MISG 30.20R VSB<1/4 COLUMBIA PTCLDY 75 49 39 W6 30.20F SUMTER CLEAR 74 52 45 NE5 30.18S FLORENCE CLEAR 75 54 47 CALM 30.20S MYRTLE BEACH CLEAR 74 63 68 SE6 30.19S N MYRTLE BEACH CLEAR 75 62 64 E6 30.18S $$ GAZ063-065-086>088-099>101-113>116-118-119-134>141-150-192300- ...SOUTHEAST GEORGIA... CITY SKY/WX TMP DP RH WIND PRES REMARKS SAVANNAH ARPT PTCLDY 78 57 48 E8 30.17S HUNTER AAF CLEAR 76 61 59 E9 30.15R FORT STEWART CLEAR 79 58 48 NE6 30.15S STATESBORO CLEAR 79 49 35 N5 30.19S SYLVANIA CLEAR 78 58 50 NE3 30.19S CLAXTON FAIR 79 58 48 N3 30.18S ...CSRA...CENTRAL AND FAR SOUTHEAST GEORGIA... CITY SKY/WX TMP DP RH WIND PRES REMARKS THOMSON CLEAR 74 46 36 E5 30.26F AUGUSTA-BUSH CLEAR 78 49 35 NE5 30.19F AUGUSTA-DANIEL CLEAR 79 47 32 NE3 30.21S SWAINSBORO FAIR 77 48 36 NE3 30.20S VIDALIA CLEAR 79 55 44 NE5 30.19R EASTMAN FAIR 80 31 17 NE7 30.21S HAZLEHURST FAIR 80 36 20 NE5 30.17S ALMA SUNNY 80 59 48 VRB5 30.16S WAYCROSS SUNNY 80 56 43 E7 30.16R JESUP NOT AVBL BAXLEY FAIR 77 55 47 NE5 30.17R BRUNSWICK CLEAR 73 59 60 NE10 30.18R SAINT SIMONS PTCLDY 76 63 64 NE14 30.16S $$ SCZ027-028-034-036>038-045-046-048>050-GAZ119-141-192300- ...LAKE AND SUPPLEMENTAL COASTAL OBSERVATIONS... STATION/POSITION TIME TEMP WIND PRES WAVE SWELL AIR SEA DIR/SP/G HT/PER HT/PER/DIR (UTC) (F) (DEG/KT/KT) (MB) (FT/S) (FT/S/D) WINYAH BAY 2045 74 80/ 6 1022.0 LAKE MURRAY 2120 75 180/ 5/ 6 1022.4 ACE BASIN NERRS 2045 80 360/ 2 1022.0 FORT PULASKI 2148 74 74 80/ 11/ 13 1022.1S SAPELO ISLAND 2100 76 50/ 11 1022.0 $$ ANZ835-935-AMZ111-154-330-350-352-354-370-450-454-472-192300- ...C-MAN AND BUOY OBSERVATIONS... STATION/POSITION TIME TEMP WIND PRES WAVE SWELL AIR SEA DIR/SP/G HT/PER HT/PER/DIR (UTC) (F) (DEG/KT/KT) (MB) (FT/S) (FT/S/D) BUOY 41004 2150 76 80 30/ 14/ 17 1020.7F 6/ 8 3/ 90/ 8 BUOY 41008 2150 75 77 60/ 17/ 21 1020.8F 6/ 9 3/120/ 9 FOLLY BEACH CMAN 2200 73 60/ 11/ 12 1022.5R CAPERS NEARSHORE 2108 72 73 60/ 12/ 16 1021.4F FRIPP NEARSHORE 2108 76 70/ 12/ 16 N/A STATION/POSITION TIME TEMP WIND PRES WAVE SWELL AIR SEA DIR/SP/G HT/PER HT/PER/DIR (UTC) (F) (DEG/KT/KT) (MB) (FT/S) (FT/S/D) 5E ST. MARYS GA 2130 77 N/A 6/ 6 FRYING PAN BUOY 2150 75 76 30/ 16/ 17 1021.1S 5/ 9 3/120/ 9 BUOY 41025 2150 75 81 360/ 10/ 12 1021.6S 5/ 9 5/120/ 9 CAPE LOOKOUT NC 2100 73 40/ 9/ 11 1021.6F BUOY 41002 2150 77 80 40/ 17/ 19 1018.1S 6/ 8 BUOY 41010 NOT AVBL ST AUGUSTINE FL 2200 75 78 50/ 18/ 20 1019.9F $$

USA.gov is the U.S. government's official web portal to all federal, state and local government web resources and services.